Location: Unspecified
(33.6682°S, 0.0000°E)
Time: 03:33:22
(UTC+00:00)

Transit 4A - Visible Passes

Search period start: 16 June 2019 00:00
Search period end: 26 June 2019 00:00
Orbit: 862 x 983 km, 66.8° (Epoch: 15 June)

Date Brightness Start Highest point End Pass type
(mag) Time Alt. Az. Time Alt. Az. Time Alt. Az.
16 Jun 9.4 05:58:34 10° S 06:03:48 32° ESE 06:09:05 10° ENE visible
17 Jun 8.7 06:07:33 10° SSW 06:13:16 48° ESE 06:19:02 10° NE visible
18 Jun 10.4 04:33:46 10° SSE 04:35:22 11° SE 04:36:58 10° ESE visible
18 Jun 8.1 06:16:43 10° SSW 06:22:39 75° ESE 06:28:39 10° NNE visible
19 Jun 10.2 04:41:24 10° S 04:45:06 17° SE 04:48:50 10° E visible
19 Jun 7.9 06:26:04 10° SSW 06:31:58 71° WNW 06:37:57 10° NNE visible
19 Jun 10.1 19:42:55 10° N 19:43:23 12° N 19:43:23 12° N visible
20 Jun 9.7 04:50:17 11° S 04:54:43 25° SE 04:59:34 10° ENE visible
20 Jun 8.3 06:35:36 10° SW 06:41:12 45° WNW 06:46:55 10° N visible
20 Jun 9.8 19:51:53 10° NNW 19:53:26 19° NNW 19:53:26 19° NNW visible
21 Jun 9.1 04:59:55 15° S 05:04:15 37° ESE 05:09:46 10° NE visible
21 Jun 9.7 18:18:59 10° NE 18:19:57 12° ENE 18:19:57 12° ENE visible
21 Jun 9.5 20:01:10 10° NNW 20:03:31 25° NW 20:03:31 25° NW visible
22 Jun 8.3 05:09:38 20° SSW 05:13:42 57° ESE 05:19:36 10° NE visible
22 Jun 9.1 18:26:12 10° NNE 18:30:01 21° ENE 18:30:01 21° ENE visible
22 Jun 9.6 20:10:48 10° NW 20:13:35 27° WNW 20:13:35 27° WNW visible
23 Jun 10.3 03:35:51 13° SE 03:35:56 13° SE 03:38:35 10° ESE visible
23 Jun 7.8 05:19:25 25° SSW 05:23:03 87° ESE 05:29:06 10° NNE visible
23 Jun 8.4 18:34:26 10° N 18:39:43 34° ENE 18:40:04 34° E visible
23 Jun 9.8 20:20:47 10° WNW 20:23:39 24° W 20:23:39 24° W visible
24 Jun 9.9 03:45:43 19° SE 03:45:43 19° SE 03:49:51 10° E visible
24 Jun 7.8 05:29:17 28° SW 05:32:20 61° WNW 05:38:17 10° N visible
24 Jun 7.9 18:43:09 10° N 18:48:55 54° ENE 18:50:06 46° ESE visible
24 Jun 10.1 20:31:10 10° W 20:33:40 18° WSW 20:33:40 18° WSW visible
25 Jun 9.4 03:55:38 29° ESE 03:55:38 29° ESE 04:00:21 10° ENE visible
25 Jun 8.4 05:39:12 27° WSW 05:41:34 38° WNW 05:47:06 10° N visible
25 Jun 7.7 18:52:14 10° NNW 18:58:11 85° ENE 19:00:04 46° SSE visible
25 Jun 10.4 20:42:13 10° W 20:43:38 13° WSW 20:43:38 13° WSW visible
